407  
ASUS46 KOTX 131525  
RWROTX  
 
EASTERN WASHINGTON/NORTHERN IDAHO ROUNDUP  
NATIONAL WEATHER SERVICE, SPOKANE WA  
800 AM PDT MON JUL 13 2020  
 
NOTE: "FAIR" INDICATED FEW OR NO CLOUDS BELOW 12,000 FEET WITH NO  
SIGNIFICANT WEATHER AND/OR S TO VISIBILITY
.  
   
..NORTHEAST WASHINGTON AND NORTHERN IDAHO PANHANDLE
 
 
 
CITY SKY/WX TMP DP RH WIND PRES REMARKS
 
SPOKANE INTL MOSUNNY 58 36 43 N9 30.06R  
SPOKANE DOWNTO SUNNY 59 37 44 NW3 30.07R  
COEUR D ALENE SUNNY 56 41 57 CALM 30.07R  
DEER PARK SUNNY 57 38 48 CALM 30.07S  
SANDPOINT SUNNY 55 43 62 CALM 30.05S  
BONNERS FERRY FAIR 50 50 100 CALM 30.06S  
   
..SOUTHEAST WASHINGTON AND SOUTHERN IDAHO PANHANDLE
 
 
 
CITY SKY/WX TMP DP RH WIND PRES REMARKS
 
WALLA WALLA SUNNY 60 41 49 S7 30.09R  
PULLMAN/MOSCOW SUNNY 56 41 57 W9 30.09S  
LEWISTON MOSUNNY 64 40 41 CALM 30.06S  
LOWELL N/A 59 52 77 CALM 30.06F  
GRANGEVILLE FAIR 55 46 71 E7 30.09S  
   
..COLUMBIA BASIN
 
 
 
CITY SKY/WX TMP DP RH WIND PRES REMARKS
 
EPHRATA SUNNY 63 37 38 N10 30.08S  
MOSES LAKE SUNNY 64 38 38 N9 30.09S  
PASCO SUNNY 64 46 52 NE3 30.09R  
RICHLAND SUNNY 67 46 46 CALM 30.09S  
HERMISTON SUNNY 63 43 48 VRB3 30.08S  
PENDLETON SUNNY 59 42 53 CALM 30.09S  
   
..EAST SLOPES CASCADES
 
 
 
CITY SKY/WX TMP DP RH WIND PRES REMARKS
 
THE DALLES SUNNY 62 50 64 NW5 30.08S  
YAKIMA SUNNY 61 42 49 W5 30.10S  
ELLENSBURG SUNNY 56 41 57 E3 30.11S  
STAMPEDE PASS SUNNY 47 42 83 VRB5 30.14S  
WENATCHEE SUNNY 60 39 45 NW9 30.10R  
OMAK SUNNY 59 41 51 N6 30.10S  
SUNNYSIDE SUNNY 60 46 61 CALM 30.09S  
   
..SOUTHERN BRITISH COLUMBIA
 
 
 
CITY SKY/WX TMP DP RH WIND PRES REMARKS
 
PENTICTON MOSUNNY 57 45 62 N5 30.11F  
CASTLEGAR MOSUNNY 54 43 66 VRB2 30.09R  
CRANBROOK MOSUNNY 52 43 71 CALM 30.03S  
OSOYOOS N/A 55 43 62 SW2 N/A  
CRESTON N/A 55 45 67 W1 N/A  
   
..WESTERN MONTANA
 
 
 
CITY SKY/WX TMP DP RH WIND PRES REMARKS
 
KALISPELL SUNNY 55 46 71 CALM 30.02S  
MISSOULA SUNNY 58 45 62 N3 30.03S  
   
..NEIGHBORING CITIES
 
 
 
CITY SKY/WX TMP DP RH WIND PRES REMARKS
 
SEATTLE PTSUNNY 58 48 69 N9 30.14F  
PORTLAND MOSUNNY 58 50 75 NW3 30.12F  
BOISE SUNNY 63 43 48 NW10 30.03R  
GREAT FALLS SUNNY 57 39 51 S8 29.96F  
CALGARY PTSUNNY 54 36 50 W3 29.90S  
 
CLICK HERE TO GO TO PREVIOUS BULLETINS.

The Nexlab WA Page
The Nexlab ID Page Main Text Page